Weather History for Cedar City, UT

Change the Weather History Date:

Thursday, February 6, 2014

  Actual Average Record
Temperature  
Mean Temperature 27 °F 31 °F  
Max Temperature 40 °F 44 °F 68 °F (1963)
Min Temperature 14 °F 19 °F -24 °F (1989)
Degree Days  
Heating Degree Days 38 34  
Month to date heating degree days 252 204  
Since 1 July heating degree days 4019 3879  
Cooling Degree Days 0 0  
Month to date cooling degree days 0 0  
Year to date cooling degree days 0 0  
Moisture  
Dew Point 21 °F    
Average Humidity 70    
Maximum Humidity 92    
Minimum Humidity 47    
Precipitation  
Precipitation T in 0.04 in 1.59 in (1965)
Month to date precipitation 0.06 0.19  
Year to date precipitation 0.50 1.05  
Sea Level Pressure  
Sea Level Pressure 29.92 in    
Wind  
Wind Speed 9 mph (SSW)    
Max Wind Speed 22 mph    
Max Gust Speed 29 mph    
Visibility 10 miles    
Events Snow    
T = Trace of Precipitation, MM = Missing Value Source: NWS Daily Summary

Daily Weather History Graph

Daily Weather History Graph

Search for Another Location

Airport:

Trip Planner

Search our weather history database for the weather conditions in past years. The results will help you decide how hot, cold, wet, or windy it might be!

Date:

Astronomy

Feb. 06, 2014 Rise Set
Actual Time 7:31 AM MST 6:01 PM MST
Civil Twilight 7:04 AM MST 6:29 PM MST
Nautical Twilight 6:33 AM MST 7:00 PM MST
Astronomical Twilight 6:02 AM MST 7:30 PM MST
Moon 11:36 AM MST (2/6) 12:51 AM MST (2/6)
Length of Visible Light 11h 24m
Length of Day
10h 30m
Waxing Crescent, 50% of the Moon is Illuminated
Feb 6
Waxing Crescent
Feb 6
First Quarter
Feb 14
Full
Feb 22
Last Quarter
Mar 1
New

Hourly Weather History & Observations

Time (MST) Temp. Windchill Dew Point Humidity Pressure Visibility Wind Dir Wind Speed Gust Speed Precip Events Conditions
12:53 AM 25.0 °F 17.1 °F 10.9 °F 55% 30.00 in 10.0 mi SSE 6.9 mph - N/A   Clear
1:53 AM 26.1 °F 17.6 °F 12.0 °F 55% 29.99 in 10.0 mi SE 8.1 mph - N/A   Clear
2:53 AM 21.9 °F 17.2 °F 10.0 °F 60% 29.98 in 10.0 mi South 3.5 mph - N/A   Clear
3:53 AM 16.0 °F - 9.0 °F 74% 29.99 in 10.0 mi Calm Calm - N/A   Clear
4:53 AM 18.0 °F 9.8 °F 9.0 °F 68% 29.99 in 10.0 mi South 5.8 mph - N/A   Clear
5:53 AM 18.0 °F 12.7 °F 10.0 °F 71% 30.00 in 10.0 mi NE 3.5 mph - N/A   Clear
6:53 AM 17.1 °F - 10.0 °F 74% 30.01 in 10.0 mi Calm Calm - N/A   Partly Cloudy
7:53 AM 19.9 °F 13.4 °F 10.9 °F 68% 30.02 in 10.0 mi SE 4.6 mph - N/A   Mostly Cloudy
8:53 AM 30.0 °F 23.2 °F 15.1 °F 54% 29.97 in 10.0 mi South 6.9 mph - N/A   Clear
9:53 AM 33.1 °F 28.7 °F 16.0 °F 50% 29.96 in 10.0 mi NE 4.6 mph - N/A   Mostly Cloudy
10:53 AM 36.0 °F 33.3 °F 19.0 °F 50% 29.94 in 10.0 mi South 3.5 mph - N/A   Scattered Clouds
11:53 AM 37.0 °F 28.5 °F 21.0 °F 52% 29.93 in 10.0 mi SW 13.8 mph 23.0 mph N/A   Overcast
12:53 PM 37.9 °F 27.6 °F 21.9 °F 53% 29.88 in 10.0 mi SW 20.7 mph 29.9 mph N/A   Partly Cloudy
1:53 PM 37.9 °F 28.5 °F 21.9 °F 53% 29.87 in 10.0 mi SSW 17.3 mph 25.3 mph N/A   Partly Cloudy
2:53 PM 39.0 °F 30.3 °F 23.0 °F 53% 29.86 in 10.0 mi SW 16.1 mph 26.5 mph N/A   Clear
3:53 PM 36.0 °F 25.6 °F 24.1 °F 62% 29.89 in 10.0 mi SSW 18.4 mph 27.6 mph N/A   Overcast
4:53 PM 33.1 °F 23.0 °F 27.0 °F 78% 29.89 in 10.0 mi SW 15.0 mph - N/A   Overcast
5:53 PM 30.9 °F 20.2 °F 28.0 °F 89% 29.90 in 10.0 mi SW 15.0 mph - N/A   Overcast
6:53 PM 30.9 °F 21.7 °F 28.0 °F 89% 29.91 in 10.0 mi SW 11.5 mph - N/A   Overcast
7:53 PM 32.0 °F 24.2 °F 28.0 °F 85% 29.91 in 10.0 mi SW 9.2 mph - N/A   Overcast
8:53 PM 32.0 °F 24.8 °F 28.0 °F 85% 29.89 in 10.0 mi SSW 8.1 mph - N/A   Overcast
9:30 PM 32.0 °F 24.8 °F 28.9 °F 88% 29.87 in 8.0 mi SW 8.1 mph - 0.00 in Snow Light Snow
9:53 PM 32.0 °F 26.4 °F 28.9 °F 88% 29.88 in 7.0 mi SSW 5.8 mph - 0.00 in Snow Light Snow
10:05 PM 32.0 °F 24.2 °F 28.9 °F 88% 29.87 in 9.0 mi South 9.2 mph - 0.00 in Snow Light Snow
10:53 PM 32.0 °F 24.8 °F 28.0 °F 85% 29.85 in 10.0 mi South 8.1 mph - 0.00 in   Overcast
11:25 PM 28.9 °F 20.4 °F 28.0 °F 96% 29.85 in 5.0 mi SSW 9.2 mph - N/A   Scattered Clouds
11:53 PM 30.9 °F 21.2 °F 28.9 °F 92% 29.86 in 10.0 mi SW 12.7 mph - N/A   Mostly Cloudy